UAL8769 KDCA-KEWR

Flight info

Callsign UAL8769
Flight time 0h 34m
Altitude 21000
Route SOOKI6 SWANN PHLBO4
Aircraft B739/M-SDE2E3FGHIRWXY/LB1

Departure

Time 2026-05-06 03:26
Airport Ronald Reagan Washington National Airport (KDCA)

Arrival

Time 2026-05-06 04:01
Airport Newark Liberty International Airport (KEWR)
Time Latitude Longitude Altitude Speed Heading
2026-05-06 02:54 38.85357 -77.04150 27 ft 0 kts 348°
2026-05-06 03:09 38.85356 -77.04150 26 ft 0 kts 348°
2026-05-06 03:10 38.85343 -77.04146 26 ft 2 kts 355°
2026-05-06 03:10 38.85328 -77.04148 26 ft 2 kts 15°
2026-05-06 03:10 38.85315 -77.04155 26 ft 2 kts 33°
2026-05-06 03:10 38.85303 -77.04168 26 ft 2 kts 51°
2026-05-06 03:11 38.85296 -77.04183 26 ft 1 kts 69°
2026-05-06 03:11 38.85294 -77.04191 26 ft 1 kts 73°
2026-05-06 03:11 38.85293 -77.04193 26 ft 0 kts 72°
2026-05-06 03:13 38.85294 -77.04193 26 ft 0 kts 72°
2026-05-06 03:14 38.85298 -77.04174 26 ft 5 kts 70°
2026-05-06 03:14 38.85314 -77.04115 26 ft 6 kts 72°
2026-05-06 03:14 38.85323 -77.04078 26 ft 0 kts 72°
2026-05-06 03:18 38.85325 -77.04074 26 ft 2 kts 72°
2026-05-06 03:18 38.85335 -77.04028 26 ft 6 kts 77°
2026-05-06 03:19 38.85341 -77.03976 26 ft 5 kts 82°
2026-05-06 03:19 38.85361 -77.03944 26 ft 5 kts 17°
2026-05-06 03:19 38.85398 -77.03941 26 ft 4 kts 356°
2026-05-06 03:19 38.85430 -77.03944 26 ft 5 kts 355°
2026-05-06 03:20 38.85519 -77.03954 26 ft 7 kts 356°
2026-05-06 03:20 38.85565 -77.03957 26 ft 6 kts 356°
2026-05-06 03:20 38.85606 -77.03962 26 ft 5 kts 354°
2026-05-06 03:21 38.85648 -77.03967 26 ft 6 kts 355°
2026-05-06 03:21 38.85696 -77.03972 26 ft 7 kts 355°
2026-05-06 03:21 38.85751 -77.03976 26 ft 8 kts 356°
2026-05-06 03:21 38.85809 -77.03982 26 ft 8 kts 355°
2026-05-06 03:22 38.85863 -77.03988 26 ft 7 kts 355°
2026-05-06 03:22 38.85911 -77.03989 26 ft 6 kts
2026-05-06 03:22 38.85951 -77.03976 26 ft 5 kts 16°
2026-05-06 03:22 38.85984 -77.03964 26 ft 4 kts 16°
2026-05-06 03:23 38.85997 -77.03959 26 ft 0 kts 15°
2026-05-06 03:25 38.86009 -77.03954 26 ft 7 kts 16°
2026-05-06 03:25 38.86076 -77.03918 26 ft 10 kts 55°
2026-05-06 03:25 38.86035 -77.03865 26 ft 12 kts 172°
2026-05-06 03:26 38.85782 -77.03838 27 ft 71 kts 176°
2026-05-06 03:26 38.85064 -77.03765 27 ft 133 kts 176°
2026-05-06 03:26 38.84007 -77.03660 377 ft 153 kts 177°
2026-05-06 03:26 38.83001 -77.03554 1099 ft 149 kts 178°
2026-05-06 03:27 38.81984 -77.03379 1656 ft 148 kts 175°
2026-05-06 03:27 38.80967 -77.03120 2073 ft 157 kts 174°
2026-05-06 03:27 38.79847 -77.02834 2415 ft 172 kts 176°
2026-05-06 03:27 38.78616 -77.02528 2767 ft 187 kts 176°
2026-05-06 03:28 38.77303 -77.02207 3127 ft 202 kts 176°
2026-05-06 03:28 38.75830 -77.01867 3405 ft 226 kts 172°
2026-05-06 03:28 38.74398 -77.01041 4200 ft 235 kts 153°
2026-05-06 03:28 38.73203 -76.99383 4486 ft 274 kts 123°
2026-05-06 03:29 38.72749 -76.96931 5072 ft 297 kts 94°
2026-05-06 03:29 38.73218 -76.94371 5790 ft 306 kts 64°
2026-05-06 03:29 38.74530 -76.92196 6484 ft 310 kts 42°
2026-05-06 03:29 38.76179 -76.90529 7285 ft 306 kts 32°
2026-05-06 03:30 38.78007 -76.89066 7915 ft 310 kts 26°
2026-05-06 03:30 38.79895 -76.87787 8713 ft 308 kts 24°
2026-05-06 03:30 38.81770 -76.86564 9543 ft 304 kts 24°
2026-05-06 03:30 38.83656 -76.85252 10141 ft 311 kts 27°
2026-05-06 03:31 38.85553 -76.83802 10488 ft 327 kts 30°
2026-05-06 03:31 38.87401 -76.82041 10855 ft 342 kts 38°
2026-05-06 03:31 38.89234 -76.79958 11170 ft 358 kts 41°
2026-05-06 03:31 38.91092 -76.77754 11460 ft 374 kts 41°
2026-05-06 03:32 38.93051 -76.75426 11747 ft 390 kts 41°
2026-05-06 03:32 38.95102 -76.73011 12045 ft 405 kts 41°
2026-05-06 03:32 38.97209 -76.70548 12492 ft 414 kts 41°
2026-05-06 03:32 38.99340 -76.68067 13103 ft 418 kts 40°
2026-05-06 03:33 39.01508 -76.65540 13693 ft 424 kts 41°
2026-05-06 03:33 39.03646 -76.62937 14350 ft 427 kts 43°
2026-05-06 03:33 39.05773 -76.60239 14981 ft 432 kts 44°
2026-05-06 03:33 39.07885 -76.57503 15586 ft 438 kts 45°
2026-05-06 03:34 39.09845 -76.54469 16203 ft 443 kts 55°
2026-05-06 03:34 39.11365 -76.50976 16813 ft 447 kts 66°
2026-05-06 03:34 39.12422 -76.47231 17434 ft 449 kts 76°
2026-05-06 03:34 39.13118 -76.43296 18053 ft 451 kts 81°
2026-05-06 03:35 39.13614 -76.39355 18633 ft 454 kts 83°
2026-05-06 03:35 39.14036 -76.35249 19213 ft 459 kts 84°
2026-05-06 03:35 39.14407 -76.31207 19723 ft 463 kts 84°
2026-05-06 03:35 39.14972 -76.27090 20241 ft 468 kts 76°
2026-05-06 03:36 39.15997 -76.23087 20740 ft 471 kts 66°
2026-05-06 03:36 39.17558 -76.19415 21004 ft 474 kts 53°
2026-05-06 03:36 39.19740 -76.16232 20952 ft 468 kts 41°
2026-05-06 03:36 39.22125 -76.13448 20949 ft 465 kts 37°
2026-05-06 03:37 39.24616 -76.10774 20947 ft 464 kts 36°
2026-05-06 03:37 39.27131 -76.08128 20941 ft 464 kts 36°
2026-05-06 03:37 39.29594 -76.05500 20940 ft 463 kts 37°
2026-05-06 03:37 39.32057 -76.02807 20941 ft 465 kts 38°
2026-05-06 03:38 39.34503 -76.00069 20942 ft 468 kts 38°
2026-05-06 03:38 39.36971 -75.97256 20933 ft 468 kts 39°
2026-05-06 03:38 39.39379 -75.94471 20930 ft 467 kts 39°
2026-05-06 03:38 39.41780 -75.91670 20931 ft 468 kts 39°
2026-05-06 03:39 39.44223 -75.88802 20930 ft 469 kts 39°
2026-05-06 03:39 39.46600 -75.85998 20930 ft 468 kts 40°
2026-05-06 03:39 39.48997 -75.83163 20935 ft 469 kts 39°
2026-05-06 03:39 39.51414 -75.80295 20935 ft 468 kts 40°
2026-05-06 03:40 39.53822 -75.77436 20937 ft 469 kts 40°
2026-05-06 03:40 39.56229 -75.74574 20938 ft 468 kts 40°
2026-05-06 03:40 39.58604 -75.71748 20936 ft 469 kts 39°
2026-05-06 03:40 39.61008 -75.68885 20936 ft 469 kts 39°
2026-05-06 03:41 39.63397 -75.66037 20934 ft 469 kts 40°
2026-05-06 03:41 39.65810 -75.63160 20934 ft 469 kts 40°
2026-05-06 03:41 39.68222 -75.60282 20929 ft 468 kts 40°
2026-05-06 03:41 39.70569 -75.57470 20923 ft 453 kts 40°
2026-05-06 03:42 39.72838 -75.54734 20737 ft 443 kts 40°
2026-05-06 03:42 39.75097 -75.52009 20350 ft 443 kts 40°
2026-05-06 03:42 39.77357 -75.49281 19841 ft 446 kts 40°
2026-05-06 03:42 39.79627 -75.46542 19269 ft 445 kts 41°
2026-05-06 03:43 39.81885 -75.43812 18703 ft 443 kts 41°
2026-05-06 03:43 39.84124 -75.41100 18128 ft 440 kts 41°
2026-05-06 03:43 39.86353 -75.38399 17563 ft 437 kts 41°
2026-05-06 03:43 39.88580 -75.35697 16989 ft 434 kts 41°
2026-05-06 03:44 39.90779 -75.33030 16473 ft 428 kts 42°
2026-05-06 03:44 39.92934 -75.30414 15946 ft 424 kts 42°
2026-05-06 03:44 39.95079 -75.27808 15389 ft 420 kts 42°
2026-05-06 03:44 39.97208 -75.25221 14825 ft 417 kts 42°
2026-05-06 03:45 39.99292 -75.22685 14275 ft 414 kts 43°
2026-05-06 03:45 40.01382 -75.20139 13719 ft 410 kts 43°
2026-05-06 03:45 40.03466 -75.17597 13160 ft 407 kts 43°
2026-05-06 03:45 40.05518 -75.15093 12610 ft 404 kts 43°
2026-05-06 03:46 40.07571 -75.12586 12040 ft 399 kts 42°
2026-05-06 03:46 40.09556 -75.10162 11523 ft 389 kts 42°
2026-05-06 03:46 40.11517 -75.07761 11061 ft 384 kts 42°
2026-05-06 03:46 40.13436 -75.05409 10927 ft 369 kts 42°
2026-05-06 03:47 40.15253 -75.03176 10787 ft 356 kts 42°
2026-05-06 03:47 40.17042 -75.00980 10620 ft 345 kts 42°
2026-05-06 03:47 40.18741 -74.98893 10520 ft 332 kts 41°
2026-05-06 03:47 40.20401 -74.96854 10402 ft 321 kts 42°
2026-05-06 03:48 40.21999 -74.94889 10293 ft 310 kts 42°
2026-05-06 03:48 40.23568 -74.92958 10095 ft 304 kts 41°
2026-05-06 03:48 40.25099 -74.91073 9742 ft 303 kts 42°
2026-05-06 03:48 40.26605 -74.89120 9383 ft 303 kts 45°
2026-05-06 03:49 40.28043 -74.87106 9040 ft 303 kts 46°
2026-05-06 03:49 40.29451 -74.85082 8698 ft 302 kts 46°
2026-05-06 03:49 40.30876 -74.83041 8360 ft 301 kts 46°
2026-05-06 03:49 40.32291 -74.81033 8051 ft 300 kts 45°
2026-05-06 03:50 40.33692 -74.79062 8011 ft 298 kts 45°
2026-05-06 03:50 40.35130 -74.77043 8006 ft 303 kts 45°
2026-05-06 03:50 40.36546 -74.75052 8016 ft 301 kts 45°
2026-05-06 03:50 40.37996 -74.73007 8022 ft 304 kts 45°
2026-05-06 03:51 40.39427 -74.70989 8003 ft 302 kts 46°
2026-05-06 03:51 40.40861 -74.68965 8024 ft 300 kts 46°
2026-05-06 03:51 40.42188 -74.66843 7889 ft 300 kts 56°
2026-05-06 03:51 40.43088 -74.64429 7602 ft 297 kts 72°
2026-05-06 03:52 40.43687 -74.61841 7248 ft 297 kts 76°
2026-05-06 03:52 40.44223 -74.59212 6907 ft 297 kts 76°
2026-05-06 03:52 40.44774 -74.56615 6564 ft 297 kts 76°
2026-05-06 03:52 40.45363 -74.53999 6217 ft 298 kts 75°
2026-05-06 03:53 40.45967 -74.51417 5866 ft 298 kts 75°
2026-05-06 03:53 40.46584 -74.48821 5512 ft 298 kts 75°
2026-05-06 03:53 40.47198 -74.46243 5194 ft 297 kts 75°
2026-05-06 03:53 40.47816 -74.43629 4824 ft 298 kts 75°
2026-05-06 03:54 40.48429 -74.41034 4490 ft 298 kts 75°
2026-05-06 03:54 40.49038 -74.38452 4133 ft 298 kts 75°
2026-05-06 03:54 40.49648 -74.35863 3798 ft 298 kts 76°
2026-05-06 03:54 40.50263 -74.33250 3585 ft 292 kts 76°
2026-05-06 03:55 40.50856 -74.30753 3513 ft 281 kts 75°
2026-05-06 03:55 40.51593 -74.28436 3438 ft 271 kts 61°
2026-05-06 03:55 40.52841 -74.26665 3204 ft 261 kts 28°
2026-05-06 03:55 40.54429 -74.25635 2914 ft 254 kts 18°
2026-05-06 03:56 40.56056 -74.24772 2650 ft 248 kts 18°
2026-05-06 03:56 40.57613 -74.23874 2378 ft 243 kts 21°
2026-05-06 03:56 40.59115 -74.22937 2164 ft 235 kts 24°
2026-05-06 03:56 40.60473 -74.21817 2013 ft 222 kts 43°
2026-05-06 03:57 40.61309 -74.20275 2007 ft 198 kts 70°
2026-05-06 03:57 40.61855 -74.18606 2013 ft 199 kts 72°
2026-05-06 03:57 40.62458 -74.16947 2010 ft 200 kts 68°
2026-05-06 03:57 40.63101 -74.15329 2020 ft 195 kts 67°
2026-05-06 03:58 40.63719 -74.13797 2012 ft 190 kts 67°
2026-05-06 03:58 40.64341 -74.12247 1997 ft 190 kts 63°
2026-05-06 03:58 40.65185 -74.10886 1916 ft 196 kts 40°
2026-05-06 03:58 40.66333 -74.09937 1650 ft 194 kts 23°
2026-05-06 03:59 40.67604 -74.09502 1314 ft 185 kts 356°
2026-05-06 03:59 40.68819 -74.09807 1059 ft 167 kts 325°
2026-05-06 03:59 40.69625 -74.10747 799 ft 151 kts 294°
2026-05-06 03:59 40.69912 -74.12039 562 ft 144 kts 268°
2026-05-06 04:00 40.69977 -74.13359 390 ft 147 kts 269°
2026-05-06 04:00 40.70063 -74.14727 198 ft 150 kts 270°
2026-05-06 04:00 40.70148 -74.16091 19 ft 149 kts 273°
2026-05-06 04:00 40.70221 -74.17156 17 ft 73 kts 275°
2026-05-06 04:01 40.70241 -74.17588 17 ft 30 kts 267°
2026-05-06 04:01 40.70197 -74.17796 18 ft 18 kts 244°
2026-05-06 04:01 40.70178 -74.17847 17 ft 0 kts 242°
2026-05-06 04:01 40.70161 -74.17843 17 ft 5 kts 124°
2026-05-06 04:02 40.70153 -74.17798 17 ft 4 kts 95°
2026-05-06 04:02 40.70153 -74.17790 17 ft 0 kts 95°
2026-05-06 04:04 40.70152 -74.17770 17 ft 6 kts 95°
2026-05-06 04:04 40.70145 -74.17673 17 ft 15 kts 95°
2026-05-06 04:05 40.70131 -74.17467 17 ft 29 kts 95°
2026-05-06 04:05 40.70114 -74.17200 17 ft 28 kts 95°
2026-05-06 04:05 40.70096 -74.16942 17 ft 28 kts 95°
2026-05-06 04:05 40.70065 -74.16764 17 ft 15 kts 152°
2026-05-06 04:06 40.69953 -74.16762 17 ft 18 kts 186°
2026-05-06 04:06 40.69805 -74.16793 17 ft 24 kts 202°
2026-05-06 04:06 40.69635 -74.16900 17 ft 29 kts 205°
2026-05-06 04:06 40.69432 -74.17027 17 ft 32 kts 206°
2026-05-06 04:07 40.69233 -74.17155 17 ft 31 kts 205°
2026-05-06 04:07 40.69039 -74.17275 17 ft 29 kts 206°
2026-05-06 04:07 40.68857 -74.17392 17 ft 28 kts 205°
2026-05-06 04:07 40.68684 -74.17501 17 ft 26 kts 206°
2026-05-06 04:08 40.68519 -74.17604 17 ft 25 kts 206°
2026-05-06 04:08 40.68348 -74.17715 18 ft 28 kts 206°
2026-05-06 04:08 40.68208 -74.17803 18 ft 13 kts 214°
2026-05-06 04:08 40.68206 -74.17909 18 ft 14 kts 295°
2026-05-06 04:09 40.68242 -74.18071 18 ft 21 kts 274°
2026-05-06 04:09 40.68238 -74.18244 18 ft 16 kts 274°
2026-05-06 04:09 40.68246 -74.18309 18 ft 3 kts 301°
2026-05-06 04:09 40.68269 -74.18318 18 ft 4 kts 356°
2026-05-06 04:10 40.68293 -74.18317 18 ft 1 kts
2026-05-06 04:10 40.68299 -74.18317 18 ft 1 kts
2026-05-06 04:10 40.68302 -74.18317 18 ft 0 kts